[[{"header":{"parameterUnit":"m.s-1","parameterCategory":1,"la1":30.2991,"la2":30.254,"lo1":-89.0895,"lo2":-89.0444,"dy":0.0017,"dx":0.0017,"nx":28,"ny":28,"refTime":"2024-08-01T21:00:00:Z","depth":0,"parameterNumber":2,"parameterNumberName":"U-component_of_WINDS"},"data":[0,0,0,0,0,0,0,0,0,0,0,0,0,0,0,0,0,0,0,0,0,0,0,0,0,0,0,0,0,0,0,0,0,0,0,0,0,0,0,0,0,0,0,0,0,0,0,0,0,0,0,0,0,0,0,0,0,0,2.9876,2.9877,0,2.9979,2.998,2.9981,2.9922,2.9919,2.9916,2.9914,3.0024,3.003,3.0035,0,0,0,0,0,0,0,0,0,0,0,0,0,2.9631,2.9635,2.9876,2.9877,2.9878,2.9979,2.998,2.9981,2.9923,2.9919,2.9916,2.9912,3.0022,3.0029,3.0036,0,0,0,0,0,0,0,0,0,0,0,0,0,2.9736,2.9637,2.9875,2.9861,2.9861,2.9978,2.998,2.9982,2.9923,2.9919,2.9915,2.9911,3.002,3.0028,3.0037,3.0176,0,0,3.0063,3.0066,0,0,0,0,0,0,0,0,2.973,2.9745,2.9862,2.9862,2.9862,2.9933,2.9934,3.0047,2.9925,2.99,2.9914,2.9909,2.9998,3.0008,3.0037,3.0181,3.0186,3.0063,3.0068,3.0072,3.0074,0,0,0,0,0,0,0,2.9723,2.974,2.9917,2.9864,2.9864,2.985,2.986,2.9955,2.9972,2.9902,2.9898,2.991,2.9997,3.0029,3.0039,3.0187,3.0063,3.0071,3.0076,3.0079,3.0448,3.0452,0,0,0,0,0,0,2.9716,2.9735,2.9913,2.992,2.9784,2.9858,2.9869,2.9915,2.9971,2.9975,2.9914,2.9907,3.0016,3.0029,3.0043,3.0207,3.0072,3.008,3.0085,3.0443,3.0449,3.0454,0,0,0,0,0,0,2.9711,2.9732,2.9909,2.9826,2.9847,2.9867,2.9918,2.9919,2.9951,2.998,2.9983,2.9943,3.0013,3.0031,3.0142,3.021,3.0084,3.0091,3.0438,3.0445,3.0452,3.0538,0,0,0,0,0,0,2.9704,2.9731,2.9784,2.9828,2.9852,3.0007,2.9923,2.9924,2.9965,2.9957,3.0008,3.0013,3.0011,3.013,3.0151,3.0219,3.0098,3.0432,3.0441,3.0449,3.0529,3.0547,3.0563,0,0,0,0,0,2.9696,2.9806,2.9787,2.9809,2.9918,3.0011,3.0025,3.002,2.9971,3.0024,3.0042,3.0011,3.0199,3.0142,3.0165,3.0237,3.0427,3.0438,3.0449,3.0522,3.0544,3.0562,0,0,0,0,0,0,2.9772,2.9811,2.9791,2.9918,2.9961,3.0,3.0067,3.0044,3.0103,3.0093,3.0086,3.0098,3.0213,3.0237,3.0172,3.0373,3.0306,3.0322,3.0353,3.0375,3.0391,3.0382,3.0105,0,0,0,0,0,2.9803,2.9874,2.9905,3.0014,3.0037,3.0048,3.0089,3.0081,3.0126,3.0144,3.0171,3.0217,3.0286,3.0332,3.0397,3.0532,3.0542,3.0593,3.061,3.0623,3.0637,3.0707,3.073,3.0489,3.0489,3.0489,0,0,2.9869,2.99,2.9945,3.003,3.0063,3.0136,3.0064,3.0146,3.02,3.0157,3.0262,3.0284,3.0335,3.0457,3.0513,3.048,3.0705,3.0637,3.0648,3.0654,3.0721,3.0743,3.0764,3.0496,3.0495,3.0494,0,0,3.0027,3.0057,3.015,3.0183,3.0232,3.0239,3.0261,3.0304,3.0315,3.0421,3.0388,3.0454,3.0574,3.061,3.0645,3.0813,3.0785,3.0835,3.0921,3.099,3.1009,3.1026,3.1084,3.1105,3.0848,3.0848,3.0848,0,3.0103,3.0211,3.0202,3.0284,3.0322,3.0284,3.0378,3.0411,3.048,3.0507,3.0469,3.0616,3.0648,3.0777,3.0818,3.0848,3.0872,3.0828,3.1007,3.1024,3.1039,3.1094,3.1116,3.0854,3.0853,3.0852,3.0852,0,3.0301,3.0377,3.0446,3.051,3.0556,3.0645,3.0648,3.0696,3.0684,3.0694,3.0801,3.0838,3.0908,3.0939,3.0929,3.1067,3.1044,3.1007,3.0939,3.1068,3.1119,3.114,3.0861,3.086,3.0858,3.0857,0,0,3.0511,3.0566,3.0591,3.0619,3.0669,3.0727,3.0813,3.088,3.092,3.0969,3.104,3.1141,3.1105,3.1144,3.1138,3.1199,3.1326,3.1154,3.1155,3.1183,3.1477,3.1504,3.1528,3.1309,3.1313,3.1316,3.1472,0,3.0669,3.0817,3.081,3.0949,3.1017,3.0981,3.1055,3.1094,3.1106,3.1167,3.118,3.1251,3.12,3.1223,3.1281,3.1298,3.1385,3.1287,3.1374,3.1378,3.1361,3.1556,3.1585,3.173,3.1493,3.1496,3.1499,0,3.0874,3.0926,3.1071,3.1108,3.1136,3.1203,3.1262,3.1321,3.1364,3.1368,3.141,3.1393,3.148,3.141,3.1529,3.1462,3.1497,3.1511,3.1517,3.1524,3.1445,3.1566,3.1777,3.1798,3.1531,3.1528,3.1526,0,3.1009,3.1116,3.1215,3.124,3.1287,3.1334,3.1356,3.1394,3.1434,3.1486,3.1512,3.1575,3.1609,3.1658,3.1658,3.1608,3.1777,3.1708,3.1783,3.1783,3.1819,3.1817,3.2037,3.1845,3.1845,3.1845,3.1844,0,3.1186,3.1276,3.1276,3.1337,3.1436,3.1427,3.1525,3.1543,3.1576,3.164,3.1614,3.1675,3.1672,3.1734,3.1735,3.1831,3.1848,3.1853,3.1852,3.1855,3.1854,3.1877,3.1866,3.185,3.1849,3.1848,3.1847,0,3.1354,3.1358,3.1463,3.1497,3.1508,3.1579,3.1608,3.1666,3.1674,3.1755,3.1774,3.1788,3.1859,3.1864,3.1947,3.1947,3.2064,3.2053,3.2049,3.2046,3.2119,3.2112,3.2361,3.2392,3.2182,3.2184,3.2186,0,3.1466,3.1533,3.1573,3.1612,3.1636,3.1701,3.174,3.1734,3.1776,3.1828,3.188,3.1948,3.2001,3.2116,3.2134,3.2197,3.2186,3.2269,3.2195,3.2195,3.2185,3.218,3.2185,3.2283,3.2285,3.2287,3.2289,0,3.1663,3.166,3.1717,3.1775,3.1821,3.1867,3.1909,3.1944,3.1942,3.1991,3.2061,3.2103,3.2185,3.2252,3.2313,3.2336,3.2312,3.2312,3.2332,3.2334,3.2328,3.233,3.2086,3.2306,3.2304,3.2303,3.2302,3.2301,3.1804,3.1861,3.1897,3.1961,3.1991,3.203,3.2085,3.2099,3.2158,3.2223,3.2216,3.2294,3.2333,3.2411,3.2439,3.25,3.2472,3.2502,3.2509,3.2516,3.2522,3.2319,3.2511,3.2511,3.251,3.251,3.251,0,3.1998,3.2019,3.2077,3.2135,3.2185,3.2156,3.22,3.2244,3.2312,3.235,3.2402,3.2482,3.2547,3.2569,3.2631,3.2676,3.2666,3.2692,3.2688,3.2693,3.2545,3.252,3.2699,3.2699,3.2699,3.2698,3.2698,3.2698,3.2105,3.2198,3.22,3.2308,3.2329,3.2403,3.243,3.2466,3.2496,3.2585,3.2638,3.2651,3.2682,3.2746,3.2803,3.2808,3.2832,3.2862,3.2862,3.2723,3.2704,3.2686,3.2662,3.2868,3.2868,3.3005,3.3006,3.3007]},{"header":{"parameterUnit":"m.s-1","parameterCategory":1,"la1":30.2991,"la2":30.254,"lo1":-89.0895,"lo2":-89.0444,"dy":0.0017,"dx":0.0017,"nx":28,"ny":28,"refTime":"2024-08-01T21:00:00:Z","depth":0,"parameterNumber":3,"parameterNumberName":"V-component_of_WINDS"},"data":[0,0,0,0,0,0,0,0,0,0,0,0,0,0,0,0,0,0,0,0,0,0,0,0,0,0,0,0,0,0,0,0,0,0,0,0,0,0,0,0,0,0,0,0,0,0,0,0,0,0,0,0,0,0,0,0,0,0,2.4004,2.4005,0,2.4115,2.4116,2.4118,2.4113,2.4112,2.411,2.4109,2.422,2.4224,2.4229,0,0,0,0,0,0,0,0,0,0,0,0,0,2.3783,2.3788,2.4004,2.4005,2.4006,2.4115,2.4116,2.4118,2.4113,2.4111,2.411,2.4108,2.4219,2.4224,2.4229,0,0,0,0,0,0,0,0,0,0,0,0,0,2.3885,2.3789,2.4003,2.4017,2.402,2.4115,2.4116,2.4118,2.4114,2.4111,2.4109,2.4107,2.4217,2.4223,2.423,2.4318,0,0,2.425,2.4253,0,0,0,0,0,0,0,0,2.388,2.3893,2.4014,2.4017,2.4019,2.4098,2.408,2.4185,2.4114,2.4078,2.4108,2.4106,2.4181,2.4191,2.4217,2.4323,2.4328,2.4251,2.4255,2.4258,2.426,0,0,0,0,0,0,0,2.3873,2.3889,2.4048,2.4016,2.4019,2.4017,2.4029,2.41,2.4141,2.4081,2.4081,2.4094,2.4182,2.421,2.4219,2.4329,2.4251,2.4256,2.4261,2.4263,2.4511,2.4513,0,0,0,0,0,0,2.3863,2.3883,2.4044,2.4051,2.3942,2.4023,2.4036,2.4075,2.414,2.4148,2.4096,2.4094,2.42,2.4211,2.4223,2.4329,2.4258,2.4264,2.4268,2.4508,2.4511,2.4514,0,0,0,0,0,0,2.3858,2.3877,2.404,2.3967,2.3987,2.4029,2.4073,2.4078,2.4106,2.4152,2.4159,2.4117,2.4199,2.4214,2.4294,2.4333,2.4267,2.4273,2.4505,2.4509,2.4513,2.4542,0,0,0,0,0,0,2.3852,2.3876,2.391,2.3968,2.3991,2.411,2.4075,2.4082,2.4118,2.4116,2.4174,2.4181,2.4198,2.4284,2.43,2.4341,2.4278,2.4502,2.4507,2.4512,2.4538,2.4546,2.4554,0,0,0,0,0,2.3844,2.3914,2.3912,2.3932,2.4036,2.4112,2.4126,2.4144,2.4121,2.4156,2.4185,2.4179,2.4326,2.4292,2.4311,2.4354,2.45,2.4506,2.4511,2.4534,2.4545,2.4554,0,0,0,0,0,0,2.386,2.3922,2.3921,2.4011,2.4057,2.4111,2.4156,2.4155,2.4207,2.4203,2.4223,2.4236,2.4316,2.4343,2.4304,2.4441,2.441,2.4419,2.4421,2.4431,2.4439,2.4431,2.4284,0,0,0,0,0,2.3874,2.3932,2.3982,2.4058,2.408,2.4114,2.4148,2.4158,2.4206,2.4225,2.4259,2.4305,2.4361,2.4397,2.4452,2.4541,2.4553,2.458,2.4588,2.4594,2.4602,2.465,2.4662,2.4533,2.4533,2.4533,0,0,2.3904,2.3945,2.398,2.4062,2.4098,2.4156,2.413,2.4193,2.4236,2.4234,2.4312,2.4339,2.439,2.4475,2.4514,2.45,2.464,2.4602,2.4606,2.4611,2.4657,2.4669,2.468,2.4537,2.4537,2.4536,0,0,2.3987,2.4025,2.4091,2.4127,2.4183,2.4204,2.422,2.4275,2.4293,2.4371,2.437,2.4421,2.4518,2.4554,2.4585,2.4681,2.4677,2.4698,2.474,2.4786,2.4796,2.4805,2.4838,2.485,2.4706,2.4706,2.4706,0,2.4017,2.4106,2.4125,2.4188,2.4223,2.4224,2.429,2.4325,2.4394,2.4418,2.4401,2.4521,2.4556,2.4649,2.4672,2.4698,2.4715,2.4691,2.4793,2.4803,2.4811,2.4843,2.4856,2.4708,2.4708,2.4707,2.4707,0,2.4139,2.42,2.4247,2.4314,2.4355,2.4419,2.4447,2.4485,2.4492,2.4515,2.4593,2.4635,2.4697,2.472,2.4727,2.4813,2.4802,2.4789,2.4758,2.4825,2.4855,2.4868,2.4711,2.471,2.4709,2.4709,0,0,2.4236,2.4313,2.433,2.436,2.442,2.4467,2.4531,2.4592,2.4624,2.4672,2.4724,2.4805,2.4793,2.4828,2.4839,2.488,2.4951,2.4861,2.4863,2.4876,2.5048,2.5057,2.5071,2.4949,2.4951,2.4953,2.5043,0,2.4326,2.444,2.4458,2.4557,2.4613,2.4614,2.4669,2.4711,2.4734,2.4784,2.4808,2.4865,2.4845,2.4866,2.4907,2.4934,2.4986,2.4928,2.4997,2.4999,2.4984,2.5087,2.5097,2.518,2.5055,2.5057,2.5058,0,2.4445,2.4496,2.4602,2.4653,2.4677,2.4727,2.4783,2.4831,2.4878,2.4892,2.4931,2.4936,2.5,2.4966,2.5054,2.5014,2.5043,2.5061,2.5064,2.5071,2.5033,2.5096,2.5207,2.5219,2.5077,2.5076,2.5074,0,2.4505,2.46,2.4675,2.4701,2.4763,2.4797,2.4824,2.4869,2.4904,2.4953,2.4976,2.5032,2.5062,2.5104,2.5124,2.5097,2.521,2.5178,2.5222,2.5221,2.5245,2.5244,2.5362,2.5265,2.5265,2.5264,2.5264,0,2.4603,2.4667,2.4702,2.4748,2.482,2.4839,2.4909,2.4935,2.4974,2.5024,2.5028,2.5074,2.5098,2.5147,2.5163,2.5232,2.5246,2.5258,2.5261,2.5257,2.5256,2.5277,2.5271,2.5268,2.5267,2.5266,2.5266,0,2.4681,2.4708,2.4789,2.4841,2.4856,2.4906,2.4949,2.4993,2.5015,2.5078,2.5094,2.5128,2.5187,2.521,2.5282,2.5292,2.5372,2.5371,2.5356,2.5357,2.54,2.5395,2.5535,2.5554,2.5445,2.5446,2.5447,0,2.4742,2.4791,2.4848,2.4882,2.4911,2.4966,2.5001,2.5022,2.5058,2.5115,2.5152,2.521,2.5258,2.5351,2.5381,2.5435,2.5435,2.5481,2.5444,2.5438,2.5435,2.5432,2.5436,2.5487,2.5489,2.5489,2.549,0,2.4846,2.4856,2.4908,2.4965,2.5007,2.5052,2.5096,2.5124,2.515,2.5191,2.5251,2.5289,2.5361,2.5419,2.5474,2.5501,2.55,2.5502,2.5514,2.5511,2.55,2.5506,2.5374,2.5498,2.5498,2.5497,2.5497,2.5496,2.4917,2.496,2.5007,2.5064,2.5099,2.514,2.5183,2.5211,2.5261,2.5323,2.5331,2.5395,2.5439,2.5514,2.5542,2.5592,2.558,2.5599,2.5603,2.5607,2.561,2.5493,2.5602,2.5602,2.5601,2.5601,2.5601,0,2.502,2.505,2.5102,2.5164,2.5208,2.5204,2.5252,2.5289,2.5346,2.5387,2.5434,2.5503,2.5558,2.5592,2.5648,2.568,2.5681,2.5694,2.5691,2.5697,2.5618,2.5601,2.5692,2.5692,2.5692,2.5692,2.5692,2.5692,2.5079,2.5152,2.5168,2.5257,2.5286,2.535,2.5377,2.5414,2.5447,2.5523,2.557,2.5592,2.563,2.5688,2.5738,2.5746,2.5766,2.578,2.5788,2.5713,2.5703,2.5694,2.5678,2.5784,2.5785,2.5863,2.5864,2.5864]}]]